Wind_Speed
27 28 28 29 29 30 33 37 40 42 43 44 45 45 44 44 44 45 45 45 47 50 49 47 43 38 34 30 23 17 18 20 20 18 16 17 17 18 19 19 16 13 12 10 10 12 10 5 4 5 6 8 10 12 15 17 18 20 20 15 8 5 7
25 25 25 25 25 26 28 32 35 39 41 43 44 45 45 44 45 45 45 45 46 48 49 49 48 44 39 35 29 22 20 22 22 21 21 21 21 22 21 18 16 15 15 15 13 12 11 7 5 4 5 7 9 11 13 15 17 18 19 17 11 6 5
23 23 23 22 23 23 24 26 29 33 37 41 43 44 45 45 45 45 45 46 46 47 47 48 49 47 44 42 36 28 25 25 24 24 25 26 27 27 24 19 18 17 17 17 16 14 12 9 7 5 4 6 7 9 11 14 16 17 18 18 14 8 5
21 22 22 21 21 21 21 22 24 27 31 36 40 43 45 45 45 44 45 46 47 47 46 46 46 47 47 46 43 36 31 29 26 25 27 29 30 29 26 24 24 22 19 17 16 16 13 10 9 7 5 5 6 8 10 12 15 16 16 18 16 11 6
19 19 20 19 18 17 18 19 20 23 26 31 36 40 43 45 45 45 45 46 46 46 45 45 45 46 47 46 44 39 34 31 29 27 28 31 31 29 28 27 26 25 21 18 16 16 13 11 11 9 6 5 5 7 9 11 14 15 15 16 17 14 8
15 16 16 15 14 14 14 16 17 19 22 27 32 37 41 44 45 45 45 45 45 44 43 43 43 43 44 43 41 37 35 34 31 28 27 28 29 30 30 28 25 24 22 18 16 17 15 13 12 10 8 6 5 6 8 11 13 15 15 15 16 16 11
12 12 12 12 11 11 11 11 13 15 18 21 26 32 37 42 44 45 45 44 43 43 42 42 41 41 41 40 38 36 36 36 33 29 27 27 28 30 31 28 25 23 23 21 20 19 19 16 13 12 11 8 6 6 8 10 12 15 15 15 15 16 14
10 9 9 9 9 7 6 7 8 9 12 16 21 27 33 38 42 42 42 42 41 41 41 41 41 40 40 39 38 37 36 35 35 32 29 29 30 32 32 29 25 24 24 24 22 21 21 19 16 14 13 10 8 7 7 8 12 15 15 15 14 15 16
8 8 7 9 8 6 6 8 7 7 9 12 17 22 27 33 36 38 38 39 39 39 40 40 40 40 39 39 38 37 35 33 35 35 31 30 30 31 33 31 27 25 25 23 21 20 22 22 18 15 14 12 11 9 8 8 12 15 16 15 15 15 15
8 8 8 10 9 9 9 10 10 10 9 10 14 18 22 26 30 33 34 35 36 37 37 37 38 37 37 37 36 35 32 30 32 35 33 30 29 30 33 34 29 26 24 22 19 18 20 21 18 17 17 13 11 11 10 11 12 14 15 15 15 15 14
8 8 9 11 12 12 11 11 12 12 10 10 12 15 18 22 25 27 29 30 32 33 34 34 35 35 35 35 34 33 30 28 29 33 33 31 29 31 35 36 30 25 23 22 19 19 20 20 19 20 20 16 14 14 12 11 11 12 14 15 15 16 14
8 9 10 12 14 15 13 12 12 13 12 11 11 13 17 20 21 23 24 26 27 29 31 32 32 33 33 34 34 31 28 27 29 31 31 30 29 31 34 35 31 25 22 21 21 21 22 22 21 21 20 18 18 16 12 10 10 11 13 14 15 15 14
8 9 10 13 17 18 16 14 14 14 14 13 12 13 17 20 21 21 22 23 24 25 27 28 29 30 31 33 34 31 27 28 30 32 32 29 29 31 32 33 31 27 22 21 21 21 23 24 23 20 18 18 19 16 12 10 10 10 12 13 14 15 14
9 10 11 13 18 21 19 17 16 15 14 15 14 14 16 20 22 23 23 23 24 24 24 26 26 28 29 31 33 31 28 29 32 33 33 32 31 29 28 28 30 29 25 22 21 21 22 23 23 21 19 18 19 17 13 12 10 10 12 13 14 14 14
11 11 12 12 16 20 22 20 19 18 16 15 15 15 17 19 22 24 25 25 25 25 25 26 26 27 27 28 31 32 30 30 32 32 33 36 34 29 26 27 30 31 28 24 23 24 25 25 24 23 21 20 20 18 15 14 12 12 13 14 14 14 14
12 13 13 14 15 17 21 23 22 20 19 18 17 16 17 18 20 23 24 25 26 27 27 27 27 27 27 28 30 32 33 33 34 35 34 34 34 32 29 29 31 33 31 28 28 29 29 28 26 25 23 23 23 20 18 16 14 14 15 15 15 15 15
13 14 14 15 16 16 18 22 24 23 21 20 19 18 18 18 19 21 23 24 25 26 28 28 28 27 27 28 29 31 35 36 36 37 37 34 34 34 31 30 33 34 32 30 31 32 32 30 29 27 25 25 25 23 20 17 15 16 17 17 17 17 16
11 14 15 15 16 17 17 20 23 25 25 23 21 20 20 19 20 21 22 23 22 23 25 26 26 25 26 28 29 30 34 38 38 39 39 39 38 37 35 35 37 37 36 34 33 32 31 31 30 28 27 27 26 26 23 20 17 18 20 20 20 20 19
8 12 15 14 14 15 17 19 21 23 25 25 23 22 22 22 22 22 23 23 23 23 23 23 23 23 23 26 29 30 31 36 40 42 42 42 43 43 41 41 40 40 40 37 34 32 32 31 31 29 28 28 28 27 25 23 20 20 22 23 23 22 22
7 9 13 15 15 15 16 18 20 21 22 24 25 24 23 23 23 24 23 24 24 25 25 23 22 22 23 24 27 30 31 34 41 46 46 44 45 46 45 44 40 39 38 37 35 35 35 34 34 32 30 29 28 28 28 26 23 22 24 26 25 24 25
9 9 10 13 15 16 16 17 19 20 21 22 24 25 25 25 24 25 25 25 24 25 27 27 24 23 24 25 26 29 33 35 40 45 47 46 46 47 48 47 44 41 40 40 39 39 39 39 39 37 34 33 32 31 31 30 26 25 26 28 28 27 28
10 10 10 10 13 16 17 17 17 18 20 20 21 23 25 27 27 27 27 26 25 25 26 29 29 27 26 27 27 27 31 35 39 43 47 49 49 50 51 50 49 46 43 43 42 41 41 42 41 39 38 37 36 34 32 30 28 28 29 31 31 31 32
12 11 11 10 10 13 15 17 16 16 17 19 20 21 23 25 27 28 28 28 27 27 26 28 31 31 30 29 27 26 27 30 34 39 43 48 51 53 54 54 52 50 46 45 44 44 43 43 42 40 39 38 37 35 33 32 31 32 32 32 33 34 35
14 12 12 12 11 10 12 15 16 15 16 16 17 18 19 22 25 27 28 28 28 28 28 28 30 32 34 33 31 28 26 26 28 30 34 40 46 51 53 54 53 52 49 46 45 45 46 46 45 43 42 41 39 36 35 35 35 35 35 34 35 37 38
17 14 13 13 12 11 11 13 16 16 16 15 15 16 16 18 21 23 24 26 26 26 27 28 29 31 33 35 35 33 31 29 27 27 29 32 37 42 47 50 52 53 52 50 47 45 45 46 47 46 45 44 42 40 39 38 38 38 37 37 38 40 40
19 17 15 14 13 11 10 11 14 16 17 17 15 15 15 15 16 18 20 22 23 23 23 25 27 28 30 32 34 35 35 33 31 30 30 30 32 35 39 44 47 50 52 53 53 50 47 45 45 45 45 44 43 42 42 42 42 41 40 41 42 43 43
21 19 17 15 14 12 11 10 10 12 15 16 15 15 15 14 14 15 17 19 20 21 21 21 22 25 26 28 30 32 34 34 33 33 32 32 33 34 35 38 42 45 47 50 52 53 51 49 46 45 44 43 43 43 44 45 46 45 44 45 45 45 45
22 21 19 18 16 14 13 11 9 9 11 12 12 13 14 13 13 15 16 18 19 19 20 20 20 22 24 25 27 29 31 33 34 34 34 34 34 34 35 36 38 40 43 46 48 51 53 53 51 48 45 43 44 44 44 44 45 45 45 46 45 45 47
24 22 22 20 18 16 15 14 12 11 11 10 10 11 12 11 11 13 15 16 17 18 19 20 21 22 23 24 25 27 28 30 32 33 34 34 34 35 36 36 36 37 39 41 44 47 51 54 53 51 48 46 45 45 44 44 43 43 43 43 43 44 45
25 24 23 22 21 19 18 16 15 14 13 13 12 12 11 10 9 10 12 12 13 15 17 20 22 23 24 25 26 27 28 29 31 32 33 34 35 35 36 37 37 37 37 38 40 42 46 50 51 53 53 51 50 48 48 48 46 45 44 43 44 45 43
28 26 24 24 23 22 21 20 18 16 15 16 15 13 11 10 10 10 11 11 11 12 14 17 20 22 24 25 26 27 28 29 30 31 32 34 35 35 36 37 38 38 38 39 39 41 43 45 47 49 52 54 54 53 52 51 51 50 49 48 48 48 48
31 28 26 25 25 25 24 23 21 19 18 18 18 16 14 12 12 12 12 11 11 11 12 14 16 19 22 24 26 27 29 30 31 31 32 33 34 35 36 37 38 39 40 41 42 42 43 44 46 47 49 51 53 53 53 53 53 52 52 52 51 51 53
35 32 29 28 28 28 27 26 25 24 22 20 20 20 18 15 14 15 14 14 12 11 11 12 13 14 16 19 21 24 26 28 30 32 33 34 34 35 36 37 38 39 40 41 43 45 45 46 47 48 49 50 51 52 53 55 56 55 56 56 55 56 57
40 37 34 32 31 31 30 29 29 28 26 24 23 23 22 20 18 18 18 17 16 14 13 13 13 13 14 15 16 19 21 23 26 28 31 33 34 36 36 37 37 38 39 40 43 45 48 49 50 50 51 52 52 53 54 55 56 57 58 58 58 59 60
44 41 39 37 35 35 34 32 31 31 30 28 27 26 25 23 22 21 20 20 20 18 16 15 16 16 16 15 15 16 17 19 20 22 25 28 31 34 36 37 38 39 39 40 41 43 47 50 53 54 54 53 54 55 56 57 57 58 58 59 60 61 61
46 44 42 40 39 39 39 36 34 33 33 32 30 29 28 26 24 23 23 22 22 22 20 19 19 19 19 19 17 17 17 17 18 19 20 22 24 28 31 34 37 39 40 41 42 43 44 47 51 55 57 58 57 57 58 59 60 60 60 60 61 63 63
43 45 45 43 41 42 42 40 37 34 33 32 32 31 30 28 26 25 25 24 24 24 23 23 22 22 22 22 21 20 19 18 18 18 18 19 20 22 24 27 30 33 36 39 41 42 44 45 47 50 54 58 60 60 60 61 62 63 63 62 61 61 62
39 41 43 43 42 42 43 43 40 35 31 30 30 30 30 30 30 29 28 27 27 27 26 26 25 25 25 25 25 24 23 22 21 21 20 20 20 21 22 23 25 27 29 32 34 37 39 41 44 46 48 51 55 58 59 60 61 63 65 66 66 66 65
Wind_Direction
266 265 261 256 248 241 238 237 236 235 234 233 232 232 231 228 226 224 223 223 222 221 221 221 221 222 223 223 222 229 238 239 235 237 246 251 251 255 263 269 268 266 270 269 254 249 253 262 292 319 335 348 354 354 356 0 7 12 9 3 340 270 222
265 265 264 261 256 248 241 236 234 232 231 231 231 231 231 229 226 224 223 223 224 224 224 224 224 224 225 225 224 231 244 246 242 241 248 253 254 252 253 260 267 268 271 270 260 250 249 256 276 303 323 344 353 352 354 358 4 11 11 7 356 316 250
267 267 264 260 256 252 246 241 237 233 230 228 228 228 229 229 227 225 223 223 224 225 225 225 225 225 226 228 228 234 245 248 244 242 247 253 256 255 253 253 260 266 270 271 266 257 248 251 268 283 304 335 351 352 352 356 360 7 11 9 3 344 289
269 267 264 259 255 252 249 246 242 237 232 228 226 225 225 227 227 225 223 223 223 224 224 224 224 224 226 230 233 237 243 245 242 239 243 247 249 254 254 251 256 265 273 277 271 261 250 248 261 271 283 318 345 350 350 355 357 2 9 10 6 355 324
265 263 262 261 257 253 250 246 243 238 233 229 225 222 221 223 224 224 224 223 223 223 224 223 223 223 225 230 234 238 238 238 235 232 235 239 242 249 252 251 256 263 269 274 272 270 263 250 256 264 267 294 334 346 345 351 356 358 5 9 9 2 344
261 258 258 260 259 253 248 245 243 238 233 229 225 222 220 220 221 223 223 223 223 224 224 225 225 224 225 229 233 235 232 229 227 227 231 236 240 245 248 249 254 258 262 266 270 277 272 249 247 258 256 271 312 335 339 345 352 356 1 6 9 7 357
258 253 254 256 253 246 243 242 245 244 238 231 226 222 220 219 219 221 222 222 223 223 224 226 227 226 226 227 230 230 228 224 220 221 227 232 237 240 242 247 251 252 257 261 263 272 267 246 238 248 251 257 290 321 330 337 347 352 357 1 6 9 6
255 247 251 252 241 233 244 252 252 252 246 237 229 223 221 219 218 219 221 222 223 223 223 224 226 226 225 224 225 226 228 225 217 217 221 225 232 235 236 242 249 250 253 252 252 261 261 246 235 241 248 255 276 303 318 331 341 345 349 356 0 6 10
255 243 243 241 226 215 247 266 270 268 256 244 235 227 224 221 219 218 219 221 222 222 222 222 223 224 222 220 220 223 228 227 220 218 219 222 229 232 231 237 245 248 247 240 240 255 256 246 241 242 246 258 280 297 307 321 331 333 339 348 353 357 6
257 247 237 226 208 199 225 248 262 269 264 251 240 231 226 223 220 218 218 219 220 221 220 221 221 221 220 218 218 220 225 227 223 222 222 222 225 227 228 235 241 243 239 233 238 252 251 245 245 242 242 259 290 296 295 305 313 320 329 338 344 348 355
249 246 238 221 204 198 212 230 244 256 263 257 245 233 226 223 220 219 219 219 220 220 220 220 220 219 218 217 217 220 223 224 223 223 222 221 223 223 226 233 238 238 235 233 240 247 245 242 239 238 245 263 280 283 286 298 303 308 319 329 334 338 344
239 239 235 221 207 201 208 221 232 242 251 254 249 234 225 222 220 219 220 220 220 220 220 220 219 219 218 217 218 220 221 221 221 221 219 220 222 222 224 229 234 236 234 233 238 243 247 248 242 240 252 263 264 266 277 289 296 301 310 321 326 327 332
232 231 230 222 213 209 211 218 225 231 237 241 243 236 225 220 220 218 217 219 219 219 220 220 220 220 219 218 220 220 219 220 220 218 216 216 216 219 225 229 231 235 236 234 238 247 255 256 249 247 256 257 252 254 262 271 284 296 302 308 316 320 321
238 228 224 221 217 216 216 217 220 222 226 231 234 234 227 220 219 218 217 218 218 218 219 219 220 220 219 219 219 219 219 219 217 216 216 214 212 217 228 234 235 238 238 234 238 250 256 250 245 247 252 248 246 247 249 256 269 282 290 295 303 312 313
247 236 225 221 221 221 220 220 220 219 218 222 227 230 230 224 219 218 219 219 218 216 215 217 218 219 219 218 218 219 221 218 211 211 214 214 213 216 224 231 235 238 239 237 239 247 250 245 244 250 250 244 244 243 241 246 258 270 278 285 291 300 304
248 243 234 227 225 226 225 224 224 223 218 219 221 224 227 226 223 222 222 222 220 217 215 214 216 217 216 215 215 218 219 215 209 209 211 212 211 212 216 223 229 233 237 238 236 237 240 243 248 253 250 243 243 241 235 239 251 262 271 279 283 287 294
246 244 238 232 230 230 231 228 228 227 224 221 221 221 222 225 225 226 228 227 223 219 216 215 216 217 217 213 212 213 214 212 209 210 211 210 208 209 213 220 226 229 232 234 231 232 236 241 245 247 245 243 243 241 236 238 248 258 266 273 278 279 283
253 243 238 233 231 232 234 234 231 229 228 226 225 223 221 221 222 224 228 231 229 224 220 218 220 222 221 216 212 210 211 210 208 209 211 211 211 211 213 217 221 224 226 228 229 232 236 239 239 238 238 240 240 237 235 238 247 256 261 268 272 273 275
274 250 241 237 236 234 235 236 234 231 230 229 228 227 224 222 221 221 223 227 230 231 228 225 223 224 225 221 216 211 209 208 208 211 213 213 214 216 218 220 222 223 224 227 229 230 231 232 232 232 233 236 237 237 240 243 248 253 256 262 268 269 271
305 270 249 242 241 241 238 236 235 233 232 231 231 232 230 228 226 225 224 224 225 229 232 232 230 228 228 228 224 217 210 207 210 214 216 216 216 216 218 221 222 223 226 229 231 232 232 231 231 232 232 234 235 237 243 247 250 250 250 256 263 266 267
310 298 272 250 243 242 242 239 235 233 233 233 233 234 235 236 234 231 230 229 226 225 227 230 232 232 231 231 231 226 218 213 213 216 217 218 218 217 217 220 225 230 233 235 235 235 236 235 235 237 238 237 235 236 240 245 248 245 246 252 258 262 263
296 299 293 272 251 243 242 241 237 232 232 233 234 235 236 239 240 239 237 236 234 230 227 227 227 228 228 227 229 230 226 223 222 221 220 220 221 222 224 228 233 235 236 236 235 235 235 236 237 240 241 239 238 238 241 244 245 243 243 247 252 257 260
281 287 293 290 272 253 244 241 239 235 232 231 232 234 236 238 241 242 242 241 240 237 232 229 227 227 227 227 227 229 230 229 229 228 227 226 226 229 232 235 237 237 236 234 233 234 235 236 238 239 238 236 237 240 242 242 242 241 242 245 250 255 259
269 274 282 288 286 274 257 247 242 238 234 231 230 231 234 237 239 241 243 244 244 242 239 234 231 229 230 232 232 232 233 233 234 234 233 232 231 232 234 235 236 236 234 232 233 235 237 239 242 242 239 237 239 241 241 240 239 239 241 245 250 254 257
260 262 270 277 282 281 271 257 247 242 238 233 229 229 232 237 239 241 242 243 244 245 243 239 236 234 234 235 237 237 237 237 239 239 240 239 237 235 235 235 236 235 234 232 233 234 236 239 241 242 241 241 242 242 240 238 238 239 241 244 248 251 254
251 252 257 266 274 277 275 264 251 244 241 237 234 234 235 239 242 243 244 243 243 243 244 242 239 238 237 237 238 240 240 241 242 242 243 243 242 240 238 237 236 236 236 235 234 233 233 235 238 240 242 244 245 245 243 240 239 241 243 246 247 249 251
246 246 247 253 262 269 272 269 257 247 242 239 239 241 241 241 244 246 246 244 243 242 242 242 241 239 239 239 240 241 242 244 245 245 244 244 244 244 243 241 239 238 238 238 237 235 234 235 237 239 242 244 245 245 244 243 243 245 247 249 249 250 251
246 245 245 246 251 259 265 267 262 253 247 243 242 246 246 243 244 246 246 244 243 242 242 241 242 241 239 239 240 241 243 244 245 246 245 244 244 245 246 245 244 242 240 240 240 239 237 237 237 237 238 241 243 243 243 244 246 248 249 250 252 254 254
248 246 245 244 244 248 255 259 257 252 249 247 246 248 247 245 244 244 242 240 240 242 242 242 242 243 243 242 241 241 241 242 244 245 245 245 245 245 246 246 247 246 244 243 242 241 240 239 238 237 235 236 238 239 240 242 244 246 248 250 253 255 256
247 246 245 244 243 243 246 250 252 249 245 245 246 245 244 242 242 242 237 234 237 241 244 245 243 243 244 244 244 243 242 242 243 243 244 244 244 244 245 246 247 248 248 247 246 245 243 241 240 239 237 236 236 238 239 242 243 245 247 249 250 251 253
244 245 245 244 243 243 242 243 246 246 243 241 241 239 238 237 239 241 238 233 233 237 242 246 246 245 244 244 245 245 245 244 244 243 243 243 243 243 244 244 246 247 248 249 248 248 247 246 245 242 240 239 239 241 242 244 245 246 248 250 250 249 250
245 244 245 245 243 242 241 240 242 243 241 238 236 234 233 233 235 238 238 234 230 231 234 239 243 244 244 244 244 245 245 245 245 244 244 243 243 243 243 244 244 246 247 248 248 248 248 248 247 246 244 243 243 243 244 246 247 247 248 249 250 251 251
247 245 244 245 244 243 240 238 239 240 239 236 234 233 232 231 231 233 236 235 231 229 229 230 233 237 240 241 242 242 244 245 246 246 246 245 244 243 243 243 244 245 246 247 248 248 248 248 249 248 247 246 246 245 246 247 248 249 249 249 250 252 254
245 245 244 244 245 245 243 239 236 237 238 237 236 236 235 234 232 232 234 235 234 233 234 234 233 234 238 239 240 240 242 243 245 246 247 247 246 245 244 244 244 244 245 246 246 247 248 248 249 251 251 250 250 250 249 250 251 252 252 252 252 253 255
240 242 242 243 243 245 245 242 237 235 236 236 236 237 238 238 236 234 235 236 236 235 239 243 244 242 241 242 242 243 243 243 244 245 247 248 248 248 246 245 245 244 244 245 245 245 245 245 245 247 249 251 251 252 252 253 254 255 255 255 255 255 256
239 238 239 240 241 243 244 243 240 236 235 235 236 237 239 241 240 238 238 239 240 239 242 248 251 250 248 245 245 246 247 248 247 247 248 250 250 250 250 248 247 246 246 245 245 246 246 245 245 245 246 247 249 250 250 251 253 254 255 256 257 257 258
239 237 237 237 238 240 241 242 242 239 236 236 237 239 240 243 245 245 243 243 244 245 246 250 254 256 255 251 249 249 250 252 252 251 252 252 253 254 254 253 251 249 249 248 248 247 248 248 248 247 247 248 249 249 250 250 250 250 250 251 252 254 256
239 239 238 237 237 238 239 240 242 241 238 238 240 243 246 247 248 249 249 248 248 249 250 252 255 257 259 257 255 254 255 256 257 258 258 258 259 259 259 258 256 254 252 251 251 251 251 251 251 251 251 251 251 251 252 252 251 250 250 249 249 249 251
Height
10841 10842 10844 10847 10850 10853 10855 10857 10860 10864 10868 10871 10874 10877 10880 10885 10889 10893 10897 10901 10904 10908 10912 10915 10919 10922 10924 10928 10930 10932 10936 10939 10941 10944 10947 10948 10949 10950 10951 10951 10952 10952 10952 10952 10953 10953 10952 10951 10951 10951 10951 10950 10950 10949 10948 10947 10945 10944 10942 10940 10939 10938 10938
10838 10839 10841 10843 10845 10847 10850 10852 10855 10858 10862 10866 10869 10872 10875 10879 10883 10887 10892 10896 10899 10903 10907 10911 10914 10918 10921 10924 10927 10929 10933 10937 10940 10942 10945 10946 10947 10947 10948 10950 10951 10951 10951 10951 10951 10951 10951 10950 10950 10949 10949 10949 10949 10948 10947 10946 10945 10943 10942 10940 10938 10938 10937
10837 10838 10839 10840 10842 10843 10846 10848 10851 10854 10857 10861 10864 10867 10871 10874 10878 10882 10887 10890 10894 10897 10902 10906 10910 10914 10917 10920 10924 10928 10931 10934 10937 10940 10943 10944 10945 10945 10946 10948 10949 10950 10950 10950 10949 10950 10949 10949 10949 10949 10948 10948 10947 10947 10946 10945 10944 10943 10941 10940 10938 10937 10937
10836 10836 10836 10838 10839 10841 10843 10845 10847 10850 10853 10855 10859 10862 10866 10869 10873 10877 10880 10884 10887 10892 10896 10901 10906 10910 10914 10917 10921 10926 10929 10931 10934 10937 10940 10942 10942 10943 10944 10946 10947 10948 10949 10948 10948 10948 10948 10948 10948 10948 10948 10947 10946 10946 10945 10945 10944 10943 10942 10940 10938 10937 10937
10833 10834 10834 10835 10837 10839 10840 10842 10843 10845 10847 10850 10853 10857 10860 10863 10867 10871 10874 10878 10882 10887 10892 10897 10901 10906 10910 10914 10918 10923 10926 10928 10931 10934 10936 10938 10940 10941 10942 10944 10945 10946 10947 10947 10947 10947 10947 10947 10947 10947 10947 10946 10945 10945 10944 10944 10943 10942 10941 10940 10939 10937 10936
10831 10832 10833 10834 10835 10837 10838 10838 10839 10841 10843 10845 10848 10851 10855 10858 10862 10866 10869 10873 10878 10884 10889 10893 10898 10902 10907 10911 10915 10919 10922 10924 10927 10930 10932 10935 10937 10939 10940 10942 10942 10943 10944 10944 10945 10945 10945 10945 10945 10946 10946 10945 10945 10944 10943 10942 10942 10941 10941 10940 10939 10937 10936
10830 10831 10833 10834 10834 10835 10835 10836 10837 10838 10840 10842 10845 10847 10850 10853 10856 10860 10865 10870 10875 10881 10886 10890 10894 10898 10903 10908 10912 10915 10917 10920 10923 10926 10929 10932 10934 10936 10937 10939 10940 10940 10941 10942 10942 10943 10943 10943 10943 10943 10944 10944 10944 10943 10942 10941 10941 10941 10940 10939 10939 10937 10936
10829 10831 10832 10833 10834 10834 10834 10835 10836 10837 10838 10840 10842 10844 10846 10849 10853 10858 10863 10868 10874 10878 10882 10886 10890 10895 10900 10904 10908 10911 10914 10917 10920 10922 10925 10928 10930 10932 10934 10935 10936 10937 10938 10938 10939 10940 10940 10940 10940 10941 10941 10942 10942 10942 10941 10940 10940 10940 10939 10939 10938 10937 10936
10828 10830 10832 10832 10832 10833 10834 10835 10836 10837 10837 10838 10839 10841 10843 10846 10851 10856 10861 10866 10870 10875 10879 10883 10887 10892 10897 10901 10904 10907 10910 10914 10916 10919 10922 10925 10927 10929 10930 10932 10933 10934 10934 10935 10936 10937 10937 10938 10938 10939 10939 10940 10941 10941 10941 10940 10939 10939 10939 10938 10938 10937 10936
10827 10828 10830 10831 10832 10833 10834 10835 10835 10836 10837 10837 10838 10840 10842 10845 10849 10853 10858 10862 10867 10871 10876 10880 10884 10889 10893 10896 10900 10903 10906 10909 10912 10915 10918 10921 10924 10926 10928 10929 10930 10930 10931 10932 10932 10933 10935 10936 10937 10936 10936 10938 10940 10940 10940 10940 10939 10939 10938 10938 10937 10937 10936
10825 10827 10828 10830 10831 10832 10834 10835 10835 10836 10836 10837 10838 10840 10841 10844 10848 10851 10856 10860 10864 10868 10872 10877 10881 10885 10888 10892 10895 10899 10902 10905 10908 10911 10914 10918 10920 10922 10924 10926 10926 10927 10928 10929 10930 10931 10934 10935 10935 10935 10936 10938 10939 10939 10939 10939 10938 10938 10938 10937 10937 10936 10936
10824 10825 10827 10828 10830 10831 10833 10834 10835 10835 10836 10837 10838 10840 10841 10843 10847 10850 10854 10858 10861 10865 10869 10873 10877 10881 10885 10888 10891 10894 10898 10901 10904 10907 10911 10914 10916 10919 10921 10922 10923 10925 10926 10927 10928 10930 10931 10932 10932 10933 10935 10938 10938 10937 10937 10937 10937 10938 10937 10937 10936 10936 10935
10823 10824 10825 10827 10828 10830 10832 10833 10834 10835 10836 10837 10838 10839 10841 10843 10846 10849 10853 10856 10859 10863 10866 10870 10874 10878 10881 10885 10888 10891 10895 10898 10901 10904 10907 10910 10912 10915 10917 10919 10920 10922 10923 10925 10927 10929 10929 10929 10930 10932 10934 10935 10936 10936 10935 10935 10936 10937 10936 10936 10936 10935 10935
10821 10823 10824 10825 10826 10827 10830 10832 10833 10834 10835 10836 10837 10839 10841 10843 10845 10848 10852 10855 10858 10861 10864 10868 10871 10874 10878 10881 10884 10888 10892 10894 10897 10901 10904 10907 10909 10912 10914 10916 10918 10920 10921 10924 10926 10927 10927 10927 10929 10931 10932 10932 10933 10934 10934 10934 10935 10935 10935 10935 10935 10935 10934
10820 10821 10822 10823 10824 10825 10827 10830 10831 10833 10835 10836 10837 10838 10840 10842 10844 10847 10850 10853 10856 10859 10862 10865 10868 10871 10874 10878 10882 10885 10888 10891 10894 10898 10900 10903 10906 10909 10911 10914 10916 10918 10920 10922 10925 10925 10924 10924 10926 10928 10929 10930 10931 10932 10932 10932 10933 10933 10933 10933 10933 10933 10933
10818 10819 10820 10821 10822 10823 10825 10828 10830 10832 10833 10835 10836 10837 10839 10841 10843 10845 10848 10851 10854 10857 10860 10863 10865 10868 10872 10875 10878 10881 10884 10887 10891 10894 10896 10899 10903 10905 10909 10912 10914 10915 10917 10919 10921 10922 10920 10921 10923 10925 10927 10928 10928 10929 10929 10930 10931 10931 10931 10932 10932 10932 10932
10817 10817 10818 10819 10820 10821 10823 10825 10827 10830 10832 10833 10834 10836 10838 10840 10842 10844 10846 10849 10852 10855 10857 10860 10863 10866 10868 10871 10874 10877 10880 10883 10887 10891 10894 10897 10900 10903 10906 10909 10910 10911 10912 10914 10915 10917 10916 10917 10918 10921 10923 10924 10925 10925 10926 10927 10928 10929 10929 10929 10930 10930 10930
10815 10816 10817 10818 10818 10819 10821 10823 10825 10827 10829 10831 10832 10834 10836 10838 10840 10842 10844 10847 10849 10852 10855 10857 10860 10863 10865 10868 10870 10874 10877 10880 10883 10887 10890 10893 10896 10898 10900 10901 10902 10905 10907 10909 10911 10913 10913 10913 10915 10917 10919 10920 10920 10921 10923 10925 10926 10926 10927 10927 10927 10927 10927
10814 10814 10815 10816 10816 10817 10819 10821 10822 10825 10827 10828 10830 10831 10833 10835 10837 10840 10842 10845 10847 10849 10852 10855 10858 10860 10862 10864 10867 10870 10874 10877 10879 10881 10884 10887 10890 10892 10894 10895 10896 10899 10901 10904 10907 10908 10909 10910 10911 10912 10913 10914 10915 10917 10919 10922 10923 10924 10924 10924 10924 10924 10924
10813 10813 10813 10814 10814 10815 10817 10819 10821 10822 10824 10826 10827 10829 10831 10833 10835 10837 10839 10842 10845 10847 10850 10853 10855 10857 10859 10861 10864 10867 10870 10873 10875 10876 10880 10883 10886 10888 10890 10892 10894 10896 10898 10901 10902 10903 10905 10906 10907 10908 10909 10909 10912 10914 10916 10918 10920 10920 10920 10920 10920 10921 10920
10811 10811 10811 10812 10813 10814 10815 10817 10819 10821 10822 10823 10825 10827 10829 10830 10832 10834 10836 10839 10842 10845 10848 10850 10853 10855 10857 10859 10861 10864 10867 10869 10871 10873 10876 10879 10882 10884 10886 10888 10890 10892 10894 10897 10898 10899 10901 10902 10903 10904 10906 10907 10909 10911 10912 10914 10915 10916 10916 10917 10917 10916 10916
10810 10810 10810 10810 10811 10812 10813 10815 10817 10819 10820 10821 10823 10824 10826 10828 10830 10832 10834 10836 10839 10842 10845 10848 10850 10853 10855 10857 10858 10860 10863 10865 10867 10869 10872 10875 10877 10880 10882 10884 10886 10888 10890 10892 10894 10895 10896 10897 10899 10901 10902 10904 10905 10907 10908 10910 10911 10912 10912 10912 10912 10912 10911
10809 10809 10809 10809 10809 10810 10811 10813 10815 10817 10818 10819 10821 10822 10823 10825 10827 10829 10831 10834 10836 10838 10841 10844 10847 10850 10852 10854 10856 10858 10859 10861 10863 10865 10868 10871 10873 10875 10877 10879 10882 10884 10886 10888 10890 10891 10891 10893 10895 10897 10898 10899 10901 10903 10904 10906 10906 10907 10907 10908 10909 10908 10907
10807 10808 10808 10808 10808 10809 10809 10811 10813 10815 10816 10817 10818 10819 10821 10822 10824 10826 10828 10830 10833 10835 10837 10840 10843 10846 10849 10851 10853 10855 10857 10858 10859 10861 10864 10866 10869 10871 10873 10875 10877 10880 10882 10884 10886 10887 10887 10888 10890 10893 10894 10896 10897 10898 10900 10901 10901 10902 10903 10905 10905 10904 10904
10804 10805 10806 10806 10807 10807 10808 10809 10811 10812 10814 10815 10816 10817 10818 10819 10821 10823 10825 10827 10829 10831 10833 10836 10839 10842 10845 10847 10849 10852 10854 10855 10857 10858 10860 10862 10864 10866 10868 10870 10872 10875 10877 10879 10881 10883 10884 10885 10886 10888 10890 10892 10893 10894 10895 10896 10897 10898 10899 10901 10900 10899 10900
10801 10802 10803 10804 10805 10806 10806 10807 10809 10810 10812 10813 10813 10815 10816 10817 10819 10820 10822 10823 10825 10827 10829 10832 10835 10838 10840 10843 10845 10847 10850 10852 10854 10855 10857 10858 10859 10861 10863 10865 10867 10870 10872 10874 10876 10879 10880 10881 10882 10884 10885 10887 10889 10890 10891 10892 10892 10893 10894 10895 10895 10895 10896
10798 10799 10801 10802 10803 10804 10805 10806 10807 10808 10810 10810 10811 10812 10813 10815 10816 10818 10819 10820 10822 10824 10826 10828 10830 10833 10836 10838 10840 10842 10845 10847 10849 10851 10853 10854 10855 10857 10858 10860 10862 10864 10866 10868 10871 10873 10875 10876 10877 10879 10880 10882 10884 10885 10886 10886 10886 10887 10888 10888 10889 10890 10891
10796 10797 10798 10799 10800 10801 10803 10804 10805 10806 10808 10808 10809 10810 10811 10812 10814 10815 10816 10817 10819 10821 10822 10824 10826 10828 10830 10833 10835 10837 10839 10841 10844 10846 10847 10849 10851 10852 10854 10855 10857 10859 10861 10863 10865 10868 10869 10871 10872 10874 10875 10877 10879 10879 10880 10880 10880 10881 10882 10882 10883 10885 10885
10794 10795 10796 10797 10798 10799 10800 10802 10803 10804 10806 10806 10807 10808 10808 10809 10811 10812 10813 10814 10816 10817 10819 10820 10822 10823 10825 10827 10829 10832 10834 10836 10838 10840 10842 10844 10845 10847 10849 10850 10852 10853 10855 10857 10859 10861 10863 10865 10866 10868 10870 10872 10873 10873 10874 10874 10875 10876 10877 10878 10879 10879 10880
10791 10792 10793 10794 10795 10797 10798 10799 10801 10802 10804 10805 10805 10806 10806 10807 10808 10809 10810 10811 10813 10814 10815 10817 10818 10819 10821 10822 10824 10826 10828 10830 10832 10834 10836 10838 10840 10842 10843 10845 10847 10849 10850 10852 10854 10855 10857 10859 10861 10862 10864 10865 10865 10867 10868 10868 10869 10871 10872 10873 10874 10874 10877
10788 10789 10790 10791 10793 10794 10795 10797 10798 10800 10801 10802 10803 10804 10804 10805 10806 10806 10808 10809 10810 10811 10812 10813 10815 10816 10817 10818 10820 10821 10823 10825 10827 10829 10831 10833 10834 10836 10838 10840 10842 10844 10845 10847 10848 10849 10851 10853 10855 10856 10858 10858 10859 10860 10861 10861 10863 10865 10866 10867 10867 10868 10870
10783 10786 10787 10788 10789 10790 10792 10793 10795 10796 10798 10799 10801 10802 10802 10803 10803 10804 10805 10806 10807 10808 10809 10810 10812 10813 10814 10815 10816 10817 10819 10820 10822 10824 10826 10828 10829 10831 10833 10835 10836 10838 10840 10841 10843 10844 10845 10847 10848 10849 10851 10852 10853 10854 10855 10854 10855 10858 10859 10859 10860 10861 10861
10779 10781 10783 10784 10785 10786 10788 10789 10791 10792 10794 10796 10797 10799 10800 10801 10801 10802 10803 10804 10805 10806 10807 10808 10809 10810 10811 10812 10813 10814 10815 10816 10817 10819 10821 10823 10824 10826 10827 10829 10831 10833 10835 10836 10837 10839 10840 10842 10843 10843 10844 10845 10847 10848 10848 10847 10848 10850 10851 10853 10854 10854 10852
10774 10776 10778 10780 10781 10782 10783 10785 10787 10788 10790 10792 10794 10795 10797 10798 10799 10799 10800 10801 10802 10803 10804 10806 10807 10808 10808 10809 10810 10811 10812 10812 10813 10815 10816 10818 10819 10821 10822 10824 10825 10827 10829 10830 10831 10833 10834 10836 10837 10837 10838 10839 10840 10841 10842 10842 10842 10843 10845 10847 10848 10847 10846
10768 10771 10773 10775 10777 10778 10779 10780 10782 10784 10786 10788 10790 10792 10793 10795 10796 10797 10798 10799 10800 10801 10802 10803 10805 10806 10807 10807 10808 10808 10809 10810 10810 10811 10812 10813 10814 10816 10817 10818 10819 10821 10822 10824 10825 10826 10827 10829 10830 10831 10832 10832 10833 10834 10835 10835 10835 10836 10837 10838 10839 10839 10839
10762 10765 10767 10770 10772 10773 10773 10775 10778 10780 10782 10785 10787 10789 10790 10791 10793 10794 10795 10796 10798 10799 10800 10801 10802 10803 10804 10805 10806 10806 10806 10807 10807 10808 10809 10810 10810 10811 10812 10813 10814 10815 10816 10817 10819 10820 10821 10822 10823 10824 10825 10825 10826 10827 10828 10828 10828 10828 10829 10830 10830 10830 10830
10755 10758 10761 10764 10766 10767 10768 10770 10773 10776 10779 10782 10784 10786 10788 10789 10790 10791 10793 10794 10795 10796 10798 10799 10800 10801 10802 10803 10803 10803 10803 10804 10804 10805 10806 10806 10807 10808 10808 10809 10810 10810 10811 10812 10812 10813 10814 10815 10816 10817 10817 10818 10819 10820 10821 10821 10821 10822 10822 10822 10822 10822 10822
10749 10752 10755 10758 10760 10762 10763 10766 10769 10773 10777 10780 10782 10785 10786 10787 10787 10788 10789 10791 10792 10793 10794 10795 10797 10798 10799 10800 10800 10801 10801 10801 10801 10802 10802 10803 10803 10804 10804 10805 10805 10806 10806 10806 10807 10807 10808 10809 10809 10810 10811 10811 10812 10812 10813 10813 10814 10814 10815 10815 10815 10815 10814